Waterloo, IA

10:59 PM CDT on May 22, 2017 (GMT -0500)
Waterloo Municipal

Weather History for KALO - April, 2013

Change the Weather History Date:

Saturday, April 27, 2013

  Actual Average Record
Temperature  
Mean Temperature 55 °F 54 °F  
Max Temperature 66 °F 66 °F 89 °F (1981)
Min Temperature 43 °F 42 °F 24 °F (1928)
Degree Days  
Heating Degree Days 10 12  
Month to date heating degree days 609 459  
Since 1 July heating degree days 7002 6784  
Cooling Degree Days 0 0  
Month to date cooling degree days 0 0  
Year to date cooling degree days 0 0  
Growing Degree Days 4 (Base 50)    
Moisture  
Dew Point 44 °F    
Average Humidity 70    
Maximum Humidity 92    
Minimum Humidity 48    
Precipitation  
Precipitation 0.00 in 0.14 in 0.98 in (2002)
Month to date precipitation 6.07 3.27  
Year to date precipitation 11.72 7.15  
Snow  
Snow 0.00 in 0.10 in T in (1979)
Month to date snowfall 0.1 1.8  
Since 1 July snowfall 48.4 35.3  
Snow Depth 0.00 in    
Sea Level Pressure  
Sea Level Pressure 30.12 in    
Wind  
Wind Speed 7 mph (South)    
Max Wind Speed 17 mph    
Max Gust Speed 22 mph    
Visibility 10 miles    
Events      
T = Trace of Precipitation, MM = Missing Value Source: NWS Daily Summary

Daily Weather History Graph

Daily Weather History Graph

Search for Another Location

Airport or City:

Trip Planner

Search our weather history database for the weather conditions in past years. The results will help you decide how hot, cold, wet, or windy it might be!

Date:

Astronomy

Apr. 27, 2013 Rise Set
Actual Time 6:09 AM CDT 8:05 PM CDT
Civil Twilight 5:39 AM CDT 8:35 PM CDT
Nautical Twilight 5:02 AM CDT 9:13 PM CDT
Astronomical Twilight 4:21 AM CDT 9:53 PM CDT
Moon 10:37 PM CDT (4/27) 7:26 AM CDT (4/27)
Length of Visible Light 14h 56m
Length of Day
13h 55m
Waning Gibbous, 95% of the Moon is Illuminated
Apr 27
Waning Gibbous
May 2
Last Quarter
May 9
New
May 17
First Quarter
May 24
Full

Hourly Weather History & Observations

Time (CDT) Temp. Windchill Dew Point Humidity Pressure Visibility Wind Dir Wind Speed Gust Speed Precip Events Conditions
12:54 AM 50.0 °F - 46.0 °F 86% 30.22 in 10.0 mi SSW 8.1 mph - N/A   Clear
1:54 AM 50.0 °F - 45.0 °F 83% 30.21 in 10.0 mi SSW 10.4 mph - N/A   Clear
2:54 AM 48.9 °F - 44.1 °F 83% 30.20 in 10.0 mi SSW 10.4 mph - N/A   Partly Cloudy
3:54 AM 48.9 °F - 44.1 °F 83% 30.19 in 10.0 mi SW 11.5 mph - N/A   Clear
4:54 AM 46.0 °F 42.5 °F 43.0 °F 89% 30.19 in 10.0 mi SSW 6.9 mph - N/A   Clear
5:54 AM 45.0 °F 43.5 °F 42.1 °F 90% 30.18 in 10.0 mi SW 3.5 mph - N/A   Clear
6:54 AM 44.1 °F - 42.1 °F 93% 30.18 in 10.0 mi Calm Calm - N/A   Clear
7:54 AM 48.9 °F - 45.0 °F 86% 30.19 in 10.0 mi South 6.9 mph - N/A   Clear
8:54 AM 52.0 °F - 45.0 °F 77% 30.17 in 10.0 mi SSW 6.9 mph - N/A   Clear
9:54 AM 55.9 °F - 45.0 °F 67% 30.16 in 10.0 mi South 10.4 mph 16.1 mph N/A   Clear
10:54 AM 60.1 °F - 45.0 °F 57% 30.15 in 10.0 mi South 9.2 mph - N/A   Clear
11:54 AM 62.1 °F - 46.0 °F 56% 30.15 in 10.0 mi South 12.7 mph - N/A   Partly Cloudy
12:54 PM 63.0 °F - 44.1 °F 50% 30.13 in 10.0 mi South 15.0 mph - N/A   Scattered Clouds
1:54 PM 64.0 °F - 45.0 °F 50% 30.11 in 10.0 mi South 8.1 mph 16.1 mph N/A   Mostly Cloudy
2:54 PM 64.9 °F - 45.0 °F 48% 30.09 in 10.0 mi SSE 8.1 mph - N/A   Mostly Cloudy
3:54 PM 63.0 °F - 44.1 °F 50% 30.08 in 10.0 mi South 11.5 mph - N/A   Overcast
4:54 PM 64.0 °F - 44.1 °F 48% 30.06 in 10.0 mi SSE 9.2 mph - N/A   Overcast
5:54 PM 63.0 °F - 44.1 °F 50% 30.04 in 10.0 mi SE 8.1 mph - N/A   Scattered Clouds
6:54 PM 63.0 °F - 42.1 °F 46% 30.03 in 10.0 mi SE 3.5 mph - N/A   Clear
7:54 PM 59.0 °F - 43.0 °F 55% 30.02 in 10.0 mi SE 6.9 mph - N/A   Clear
8:54 PM 55.0 °F - 42.1 °F 62% 30.01 in 10.0 mi SE 4.6 mph - N/A   Clear
9:54 PM 55.0 °F - 43.0 °F 64% 30.01 in 10.0 mi SSE 4.6 mph - N/A   Clear
10:54 PM 51.1 °F - 43.0 °F 74% 30.01 in 10.0 mi Calm Calm - N/A   Clear
11:54 PM 46.0 °F - 41.0 °F 83% 30.00 in 10.0 mi Calm Calm - N/A   Clear